Regional Weather Roundup
Issued by NWS

Home | Current Version | Previous Version | Graphics & Text | Print | Product List | Glossary On
Versions: 1 2 3 4 5 6 7 8 9 10 11 12 13 14 15 16 17 18 19 20 21 22 23 24 25 26 27 28 29 30 31 32 33 34 35 36 37 38 39 40 41 42 43 44 45 46 47 48 49 50
000
ASUS43 KBIS 221510
RWRND

NORTH DAKOTA REGIONAL WEATHER ROUNDUP
NATIONAL WEATHER SERVICE BISMARCK ND
900 AM CST WED FEB 22 2017

NOTE: "FAIR" INDICATES FEW OR NO CLOUDS BELOW 12,000 FEET WITH NO
SIGNIFICANT WEATHER AND/OR OBSTRUCTIONS TO VISIBILITY.


NDZ001>003-009>011-017-221600-
NORTHWEST NORTH DAKOTA

CITY           SKY/WX    TMP DP  RH WIND       PRES   REMARKS
WILLISTON      CLOUDY    31  27  85 N14       29.85R
MINOT          CLOUDY    32  29  88 N17       29.79R
MINOT AFB      CLOUDY    31  27  86 N14       29.79R
$$

NDZ018>021-031>035-040>046-221600-
SOUTHWEST NORTH DAKOTA

CITY           SKY/WX    TMP DP  RH WIND       PRES   REMARKS
BISMARCK       LGT SNOW  34  33  96 N6        29.74R FOG
DICKINSON      CLOUDY    30  28  92 NE14      29.73R FOG     WCI  19
GARRISON         N/A     31  28  89 N14G21    29.75R
HETTINGER ARPT FOG       34  33  96 NW9       29.74R VSB 1
$$

NDZ004>008-012>016-024-026-027-054-221600-
NORTHEAST NORTH DAKOTA

CITY           SKY/WX    TMP DP  RH WIND       PRES   REMARKS
GRAND FORKS    LGT SNOW  34  30  85 N17       29.74S FOG
GRND FRKS AFB  LGT RAIN  32  32 100 NE17      29.74S
DEVILS LAKE    CLOUDY    32  31  96 NE16      29.75S
$$

NDZ022-023-025-028>030-036>039-047>053-221600-
SOUTHEAST NORTH DAKOTA

CITY           SKY/WX    TMP DP  RH WIND       PRES   REMARKS
FARGO          FOG       33  33 100 N8        29.68S VSB 1/4
JAMESTOWN      LGT RAIN  33  33 100 N9        29.67R FOG
$$





USA.gov is the U.S. government's official web portal to all federal, state and local government web resources and services.